sat.trackr.live / text

‹ back to catalog

STARLINK-2098

NORAD 47378 · 2021-005AF

PAYLOAD ACTIVE UNKNOWN

§ Identity

Operator
Country
US
Launch date
2021-01-20
Launch site
AFETR
Launch vehicle
Mass (kg)
RCS (m²)

Purposes: comms

External: N2YO · Heavens-Above · Gunter

§ Orbital elements

Epoch: 2026-05-25T01:11:19.908672Z

Period
94.01 min
Inclination
53.1608°
Eccentricity
0.0001073
Mean motion
15.31723792 rev/d
Perigee alt
469.9 km
Apogee alt
471.4 km
Semi-major
6,848.8 km
B*
-3.0303e-5
RAAN
19.0191°
Arg perigee
88.5189°
Mean anomaly
271.5935°
Rev number
29,541

§ Raw data

STARLINK-20981 47378U 21005AF  26145.04953598 -.00001306  00000+0 -30303-4 0  99922 47378  53.1608  19.0191 0001073  88.5189 271.5935 15.31723792295418

JSON: /api/v1/satellites/47378 · /tle

For live sub-satellite position, see the globe view (requires WebGL).

§ Visibility from observer

Set your observer location to see the next 7 days of passes ≥ 10°. The values pass through the URL so the page stays shareable.

No JS? Fill the form by hand. The geolocation button needs JavaScript.